Tracking 19969 objects as of 13-Nov-2019
Live streaming from Space Station
objects crossing your sky now
Track the group of recently launched Starlink satellites

ECHOSTAR 6

Track ECHOSTAR 6 now!
ECHOSTAR 6 is classified as:


NORAD ID: 26402
Int'l Code: 2000-038A
Perigee: 36,199.3 km
Apogee: 36,230.1 km
Inclination: 5.9 °
Period: 1,457.7 minutes
Semi major axis: 42585 km
RCS: 25.1188 m2 (large)
Launch date: July 14, 2000
Source: United States (US)
Launch site: AIR FORCE EASTERN TEST RANGE (AFETR)

CONUS, Hawaii, Alaska and Puerto Rico; 32 Ku-band transponders
aabbcc
Your satellite tracking list
Your tracking list is empty




NASA's NSSDC Master Catalog

Two Line Element Set (TLE):
1 26402U 00038A   19315.51989706  .00000058  00000-0  00000+0 0  9991
2 26402   5.8535  62.9111 0003615 200.9155 218.6324  0.98788661 70678
Source of the keplerian elements: AFSPC